Back to catalog

SL-12 DEB

LostHEO
NORAD 34202·DEBRIS·🇷🇺 Russia

Launched Nov 12, 1997 from Baikonur Cosmodrome

Loading…

Next Passes (next 24 hours)

TLE

StaleSource: Space-Track

Epoch: Nov 6, 2016, 05:45 UTC

1 34202U 97070M   16311.23986363 -.00000013  00000-0  00000+0 0  9990
2 34202  48.1614 218.5365 3277972 227.8688 333.0089  7.28749514237011

Track SL-12 DEB in real time with AllMySat

Download on the App Store